Weather Roundup
Issued by NWS Corpus Christi, TX

Home | Current Version | Previous Version | Text Only | Print | Product List | Glossary On
Versions: 1 2 3 4 5 6 7 8 9 10 11 12 13 14 15 16 17 18 19 20 21 22 23 24 25 26 27 28 29 30 31 32 33 34 35 36 37 38 39 40 41 42 43 44 45 46 47 48 49 50
000
ASUS44 KCRP 281510
HRRCRP

SOUTH TEXAS REGIONAL WEATHER ROUNDUP
NATIONAL WEATHER SERVICE CORPUS CHRISTI TX
900 AM CST TUE FEB 28 2017


TXZ229>244-281600-
...CORPUS CHRISTI AREA OBSERVATIONS...

CITY           SKY/WX    TMP DP  RH WIND       PRES   REMARKS
CORPUS CHRISTI PTSUNNY   76  72  87 SE22      29.95R
NAS CORPUS CHR PTSUNNY   74  71  91 SE15      29.96R
ROCKPORT       PTSUNNY   75  70  84 SE12      29.97R
KINGSVILLE NAS CLOUDY    77  73  87 SE20G28   29.94R FOG
ALICE          PTSUNNY   76  70  82 SE9       29.95R
ORANGE GROVE   CLOUDY    73  71  93 SE7       29.97R FOG
FALFURRIAS     PTSUNNY   75  70  84 SE15G21   29.93R
$$

...VICTORIA AREA OBSERVATIONS...

CITY           SKY/WX    TMP DP  RH WIND       PRES   REMARKS
VICTORIA       CLOUDY    75  70  84 S20G26    29.98R
BEEVILLE       CLOUDY    74  74 100 S10       29.96R
PLEASANTON     CLOUDY    73  69  87 SE7       29.95R FOG
SAN ANTONIO    CLOUDY    71  68  90 S7        29.97R FOG
$$

...LAREDO AREA OBSERVATIONS...

CITY           SKY/WX    TMP DP  RH WIND       PRES   REMARKS
LAREDO         CLOUDY    75  69  81 S14G21    29.93R
COTULLA        CLOUDY    75  68  78 SE5       29.94R HAZE
DEL RIO        CLOUDY    69  67  93 SE7       29.94R FOG
MCALLEN        PTSUNNY   78  70  76 SE20G26   29.93R
HEBBRONVILLE   CLOUDY    74  67  79 S12       29.95R HAZE
$$

...OTHER TEXAS OBSERVATIONS...

CITY           SKY/WX    TMP DP  RH WIND       PRES   REMARKS
BROWNSVILLE    PTSUNNY   78  72  81 S20G28    29.97R
HOUSTON        CLOUDY    74  67  78 S12G17    30.01R
COL. STATION   PTSUNNY   74  69  85 S17       29.97R
AUSTIN         PTSUNNY   74  69  85 S9        29.95R HAZE
WACO           CLOUDY    70  68  93 S14       29.92S FOG
FORT WORTH     CLOUDY    72  66  81 S13       29.91R HAZE
WICHITA FALLS  CLOUDY    65  60  84 S20       29.85R
LUBBOCK        CLOUDY    58  28  32 SW7       29.88R
EL PASO        PTSUNNY   55  16  21 S7        29.95R
$$

...MARINE OBSERVATIONS...

STATION/POSITION TIME  SKY/WX   TEMP    WIND        PRES    VSBY  WAVE   SWELL
                                AIR SEA DIR/SP/G                  HT/PER HT/PER
                 (UTC)          (F)     (DEG/KT/KT) (MB)    (MI)  (FT/S) (FT/S)
PORT ARANSAS     1500            70 68  130/  8/  9 1015.0R
BUOY 90 E PORT A 1450            72 71  130/ 12/ 14 1016.0R         5/ 8   3/ 8
BUOY 45 SE BAFFI 1350            74     160/ 14/ 17 1013.6          5/ 7   3/ 7
BUOY 200 E PT IS 1450            76 76  140/ 17/ 21 1016.6R         6/ 7
BUOY 15 E GALVES 1450            69 67  150/ 12/ 14 1017.1R         3/ 7   2/ 7
$$




USA.gov is the U.S. government's official web portal to all federal, state and local government web resources and services.